• MPC Preparation (Info)

  • MPEC 2008-H32 : 2008 HL

    The following Minor Planet Electronic Circular may be linked-to from your own Web pages, but must not otherwise be redistributed electronically.

    A form allowing access to any MPEC is at the bottom of this page.


    Read MPEC 2008-H31 Read MPEC 2008-H33


    M.P.E.C. 2008-H32                                Issued 2008 Apr. 26, 15:27 UT
    
         The Minor Planet Electronic Circulars contain information on unusual
             minor planets and routine data on comets.  They are published
       on behalf of Commission 20 of the International Astronomical Union by the
              Minor Planet Center, Smithsonian Astrophysical Observatory,
                              Cambridge, MA 02138, U.S.A.
    
                 Prepared using the Tamkin Foundation Computer Network
    
                                  MPC@CFA.HARVARD.EDU
              URL http://www.cfa.harvard.edu/iau/mpc.html  ISSN 1523-6714
    
                                        2008 HL
    
    Observations:
         K08H00L* C2008 04 25.46112 20 52 24.63 +06 44 48.4          19.6 V EH032G96
         K08H00L  C2008 04 25.46608 20 52 26.07 +06 44 42.6          19.5 V EH032G96
         K08H00L  C2008 04 25.47101 20 52 27.51 +06 44 36.5          19.6 V EH032G96
         K08H00L  C2008 04 25.47589 20 52 28.92 +06 44 31.0          19.6 V EH032G96
         K08H00L  C2008 04 25.48617 20 52 31.90 +06 44 19.1          19.7 V EH032G96
         K08H00L  C2008 04 25.48661 20 52 32.05 +06 44 18.2          19.8 V EH032G96
         K08H00L  C2008 04 25.48705 20 52 32.19 +06 44 17.9          19.4 V EH032G96
         K08H00L  C2008 04 25.48746 20 52 32.26 +06 44 17.2          19.8 V EH032G96
         K08H00L  C2008 04 25.48818 20 52 32.48 +06 44 16.6          19.6 V EH032G96
         K08H00L  C2008 04 25.48851 20 52 32.59 +06 44 16.0          19.6 V EH032G96
         K08H00L  C2008 04 25.48881 20 52 32.66 +06 44 15.8          19.3 V EH032G96
         K08H00L  C2008 04 25.48911 20 52 32.77 +06 44 15.1          19.5 V EH032G96
         K08H00L  C2008 04 26.47012 20 57 24.08 +06 24 35.7                 EH032291
         K08H00L  C2008 04 26.47385 20 57 25.27 +06 24 30.9                 EH032291
         K08H00L  C2008 04 26.47541 20 57 25.74 +06 24 28.3          19.9 V EH032G96
         K08H00L  C2008 04 26.47589 20 57 25.88 +06 24 27.9          19.9 V EH032G96
         K08H00L  C2008 04 26.47637 20 57 26.02 +06 24 27.0          19.8 V EH032G96
         K08H00L  C2008 04 26.47685 20 57 26.13 +06 24 26.6          19.7 V EH032G96
         K08H00L  C2008 04 26.47754 20 57 26.38 +06 24 26.1                 EH032291
         K08H00L  C2008 04 26.47795 20 57 26.46 +06 24 25.1          19.4 V EH032G96
         K08H00L  C2008 04 26.47842 20 57 26.56 +06 24 24.9          19.5 V EH032G96
         K08H00L  C2008 04 26.47891 20 57 26.74 +06 24 24.3          19.7 V EH032G96
         K08H00L  C2008 04 26.47938 20 57 26.85 +06 24 24.0          19.7 V EH032G96
    
    Observer details:
    291 LPL/Spacewatch II.  Observer T. H. Bressi.  1.8-m f/2.7 reflector + CCD.
    G96 Mt. Lemmon Survey.  Observer A. R. Gibbs.  Measurers E. C. Beshore,
        A. Boattini, G. J. Garradd, A. R. Gibbs, A. D. Grauer, R. E. Hill,
        R. A. Kowalski, S. M. Larson, R. H. McNaught.  1.5-m reflector + CCD.
    
    Orbital elements:
    2008 HL                                                  Earth MOID = 0.0589 AU
    Epoch 2008 Apr. 24.0 TT = JDT 2454580.5                 MPC
    M 358.50463              (2000.0)            P               Q
    n   0.28809240     Peri.   96.71304     -0.65375152     +0.75504207
    a   2.2704652      Node   132.33344     -0.71833285     -0.59836932
    e   0.5655730      Incl.    3.89412     -0.23792196     -0.26807766
    P   3.42           H   20.3           G   0.15
    From 23 observations 2008 Apr. 25-26.
    
    Ephemeris:
    2008 HL                  a,e,i = 2.27, 0.57, 4                   q = 0.9864
    Date    TT    R. A. (2000) Decl.     Delta      r     Elong.  Phase     V
    2008 04 24    20 44.67   +07 16.4    0.162    0.989    79.3    91.4    19.6
    2008 05 04    21 28.10   +04 21.4    0.209    0.988    78.5    89.5    20.0
    2008 05 14    21 56.94   +02 30.0    0.254    1.005    81.5    84.1    20.3
    2008 05 24    22 17.56   +01 10.8    0.295    1.037    86.5    77.0    20.4
    2008 06 03    22 32.12   +00 02.4    0.330    1.083    92.9    69.3    20.5
    2008 06 13    22 41.03   -01 13.0    0.359    1.139   100.9    61.1    20.5
    2008 06 23    22 44.27   -02 47.0    0.383    1.204   110.2    52.4    20.5
    2008 07 03    22 41.67   -04 46.9    0.405    1.274   121.2    43.1    20.5
    2008 07 13    22 33.41   -07 13.2    0.429    1.348   133.5    33.1    20.5
    2008 07 23    22 20.66   -09 55.1    0.461    1.425   147.0    22.8    20.5
    2008 08 02    22 05.41   -12 35.2    0.507    1.503   161.0    12.7    20.5
    2008 08 12    21 50.27   -14 54.1    0.569    1.581   174.6     3.5    20.4
    2008 08 22    21 37.60   -16 39.2    0.652    1.659   171.7     5.0    20.9
    2008 09 01    21 28.70   -17 48.5    0.754    1.736   159.8    11.6    21.6
    
    Sonia Keys                   (C) Copyright 2008 MPC           M.P.E.C. 2008-H32
    

    Read MPEC 2008-H31 Read MPEC 2008-H33


    MPEC number:

    Enter an MPEC number in one of the following forms:

    • 1997-B01 (the full form)
    • J97B01 (the packed version of the full form)
    • B01 (the abbreviated form)